Time,TemperatureF,DewpointF,PressureIn,WindDirection,WindDirectionDegrees,WindSpeedMPH,WindSpeedGustMPH,Humidity,HourlyPrecipIn,Conditions,Clouds,dailyrainin,SoftwareType,DateUTC
2013-01-15 09:30:00,68.6,67.1,30.16,SSW,200,0.0,0.0,95,0.00,,,0.00,Wunderground v.1.15,2013-01-15 14:30:00,
2013-01-15 09:35:00,69.5,67.4,30.16,WSW,243,1.0,1.0,93,0.00,,,0.00,Wunderground v.1.15,2013-01-15 14:35:00,
2013-01-15 09:45:00,70.9,67.8,30.16,WSW,242,1.0,2.0,90,0.00,,,0.00,Wunderground v.1.15,2013-01-15 14:45:00,
2013-01-15 09:50:00,71.3,67.9,30.16,WSW,250,1.0,1.0,89,0.00,,,0.00,Wunderground v.1.15,2013-01-15 14:50:00,
2013-01-15 10:00:00,71.9,67.5,30.16,WSW,237,1.0,2.0,86,0.00,,,0.00,Wunderground v.1.15,2013-01-15 15:00:00,
2013-01-15 10:10:00,72.7,67.9,30.16,West,268,1.0,2.0,85,0.00,,,0.00,Wunderground v.1.15,2013-01-15 15:10:00,
2013-01-15 10:20:00,73.0,67.9,30.16,WSW,251,1.0,1.0,84,0.00,,,0.00,Wunderground v.1.15,2013-01-15 15:20:00,
2013-01-15 10:25:00,73.3,68.2,30.15,WSW,256,1.0,1.0,84,0.00,,,0.00,Wunderground v.1.15,2013-01-15 15:25:00,
2013-01-15 10:30:00,73.5,68.4,30.15,SW,235,1.0,1.0,84,0.00,,,0.00,Wunderground v.1.15,2013-01-15 15:30:00,
2013-01-15 10:35:00,73.8,68.3,30.15,WNW,297,0.0,1.0,83,0.00,,,0.00,Wunderground v.1.15,2013-01-15 15:35:00,
2013-01-15 10:40:00,74.0,67.8,30.15,SSE,154,0.0,0.0,81,0.00,,,0.00,Wunderground v.1.15,2013-01-15 15:40:00,
2013-01-15 10:50:00,74.2,67.3,30.14,West,259,1.0,1.0,79,0.00,,,0.00,Wunderground v.1.15,2013-01-15 15:50:00,
2013-01-15 10:55:00,74.0,67.4,30.14,WSW,242,1.0,1.0,80,0.00,,,0.00,Wunderground v.1.15,2013-01-15 15:55:00,
2013-01-15 11:00:00,74.1,67.2,30.14,WNW,286,1.0,1.0,79,0.00,,,0.00,Wunderground v.1.15,2013-01-15 16:00:00,
2013-01-15 11:10:00,74.4,67.5,30.14,NW,316,0.0,1.0,79,0.00,,,0.00,Wunderground v.1.15,2013-01-15 16:10:00,
2013-01-15 11:15:00,74.9,67.9,30.14,SE,125,0.0,1.0,79,0.00,,,0.00,Wunderground v.1.15,2013-01-15 16:15:00,
2013-01-15 11:20:00,75.5,68.2,30.13,West,281,0.0,4.0,78,0.00,,,0.00,Wunderground v.1.15,2013-01-15 16:20:00,
2013-01-15 11:25:00,76.0,68.3,30.13,West,281,1.0,4.0,77,0.00,,,0.00,Wunderground v.1.15,2013-01-15 16:25:00,
2013-01-15 11:30:00,76.1,67.6,30.13,NW,322,1.0,1.0,75,0.00,,,0.00,Wunderground v.1.15,2013-01-15 16:30:00,
2013-01-15 11:40:00,76.7,67.8,30.12,NNE,18,0.0,0.0,74,0.00,,,0.00,Wunderground v.1.15,2013-01-15 16:40:00,
2013-01-15 11:45:00,77.4,67.7,30.12,SW,221,0.0,0.0,72,0.00,,,0.00,Wunderground v.1.15,2013-01-15 16:45:00,
2013-01-15 11:50:00,77.6,67.0,30.12,West,274,0.0,2.0,70,0.00,,,0.00,Wunderground v.1.15,2013-01-15 16:50:00,
2013-01-15 11:55:00,77.0,67.3,30.11,WSW,252,1.0,2.0,72,0.00,,,0.00,Wunderground v.1.15,2013-01-15 16:55:00,
2013-01-15 12:00:00,77.3,68.0,30.11,SW,234,1.0,1.0,73,0.00,,,0.00,Wunderground v.1.15,2013-01-15 17:00:00,
2013-01-15 12:10:00,78.2,67.2,30.10,ENE,75,0.0,0.0,69,0.00,,,0.00,Wunderground v.1.15,2013-01-15 17:10:00,
2013-01-15 12:15:00,78.3,68.5,30.10,West,273,0.0,0.0,72,0.00,,,0.00,Wunderground v.1.15,2013-01-15 17:15:00,
2013-01-15 12:25:00,78.7,67.2,30.10,West,276,0.0,1.0,68,0.00,,,0.00,Wunderground v.1.15,2013-01-15 17:25:00,
2013-01-15 12:30:00,79.0,66.2,30.10,East,96,0.0,0.0,65,0.00,,,0.00,Wunderground v.1.15,2013-01-15 17:30:00,
2013-01-15 12:35:00,78.7,67.7,30.09,SW,231,1.0,1.0,69,0.00,,,0.00,Wunderground v.1.15,2013-01-15 17:35:00,
2013-01-15 12:45:00,77.8,68.0,30.09,SW,228,1.0,4.0,72,0.00,,,0.00,Wunderground v.1.15,2013-01-15 17:45:00,